{"data":{"norad_id":54091,"intl_designator":"2022-136AS","name":"STARLINK-5221","alt_names":[],"object_type":"PAYLOAD","status":"ACTIVE","operator":null,"country":"US","launch_date":"2022-10-20","launch_site_code":"AFETR","launch_vehicle":null,"mission":null,"orbit_class":"UNKNOWN","rcs_meters":null,"size_class":null,"mass_kg":null,"dimensions":null,"purposes":["comms"],"wikipedia_slug":null,"has_3d_model":false,"image_url":null,"decayed_at":null,"tle_current":{"epoch":"2026-05-24T22:58:41.286720Z","epoch_age_seconds":85538,"freshness":"FRESH","line1":"1 54091U 22136AS  26144.95742230  .00001601  00000+0  11867-3 0  9995","line2":"2 54091  53.2134 351.3385 0001522  89.2256 270.8910 15.08830862198500","mean_motion":15.08830862,"eccentricity":0.0001522,"inclination_deg":53.2134,"raan_deg":351.3385,"arg_perigee_deg":89.2256,"mean_anomaly_deg":270.891,"bstar":0.00011867,"rev_number":19850,"period_min":95.438132680507,"perigee_km":538.71841466901,"apogee_km":540.82422596171,"semimajor_km":6917.9083203154,"source":"CELESTRAK","updated_at":"2026-05-25T13:38:17.655569Z"}}}